STARLINK-1376, 45570

Orbit data source: Space-Track

STARLINK-1376, 45570 is a payload satellite owned by SpaceX/Seattle (US) in LEO that was launched on Wed, 22 Apr 2020 UTC via an FALCON 9 launch vehicle from the Air Force Eastern Test Range (AFETR). Payload-class satellites include a variety of spacecraft equipped with specific instruments for various scientific and technological missions. These include communications satellites like Starlink; space stations such as the ISS; scientific satellites like the Hubble; Earth observation satellites from companies like Planet Labs, Umbra, and HawkEye 360; GPS; miniature CubeSats for education and research; and military/defense satellites.

Loading next visibility...
Identifier
45570, 2020-025AR
Orbit
LEO
Country
Flag of USUS
Related business
Manufacturer
SpaceX/Seattle
Mission
Operational Commercial Communications
Bus & Motor
STARLINK, Unknown motor
Mass
260 kg wet, ~248 kg dry
Launch date (UTC)
2020-04-22 (6 years ago)
Launch vehicle
FALCON 9
Launch site
Air Force Eastern Test Range (AFETR)
Object type
Payload
Rocket body
Debris
Shape & HBR
Box + 1 Pan, 10.1 m
Radar Cross Section
13.562 m², Large (>1 m²)

Expand to show TLE details & history
Last TLE update: 1 day ago

TLE from 1 day ago
0 STARLINK-1376
1 45570U 20025AR  25347.70276265 -.00000237  00000-0  30073-5 0  9997
2 45570  53.0543 112.6302 0001141  90.0053 270.1067 15.06398295312403
Epoch: 2025-12-13T16:51Z
TLE epoch observation values (Epoch: 2025-12-13T16:51:58.692Z)
Latitude
-0.00002°
Longitude
137.0094°
Altitude
548.095 km
Speed
7.589 km/s
True Right ascension
07h 30m 31s
True Declination
0° 00' 00"
Sunlit
Object was in full shadow at epoch
Visualization orbit readout
Latitude
Unknown
Longitude
Unknown
Altitude
Unknown
Speed
Unknown
Apparent Right ascension
Unknown
Apparent Declination
Unknown
Sunlit
N/A
Visualization observer readout
Local Sidereal Time
19:42:27
Azimuth
Unknown
Elevation
Unknown
Doppler factor
Unknown
Orbital elements
Apogee altitude
548.278 km
Perigee altitude
546.697 km
Semi-major axis
6,925.625 km
Eccentricity
0.00011
Inclination
53.0543°
RAAN
112.6302°
Arg. of periapsis
90.0053°
True anomaly
270.09363°
Mean anomaly
270.1067°
Eccentric anomaly
270.10016°
Mean motion
3.76578 °/min
Orbital period
95.6 mins
BSTAR
0.0000030073
Loading maneuver chart data...
Computing Atmospheric mass density...

Documentation

Showing up to 5 results
|